Location: Ciserano
(45.5833°N, 9.6000°E)
Time: 11:47:42
(UTC+00:00)

Cosmos 2341 Rocket - Pass Details

Date: 29 November 2020
Orbit: 969 x 1004 km, 82.9° (Epoch: 25 January)

Event Time Altitude Azimuth Distance (km) Brightness Sun altitude
Rises 05:23:16 0° 176° (S) 3,648 7.3 -13.0°
Reaches altitude 10° 05:25:47 10° 174° (S) 2,704 6.6 -12.6°
Maximum altitude 05:31:53 65° 94° (E) 1,060 4.5 -11.6°
Drops below altitude 10° 05:38:03 10° 14° (NNE) 2,728 6.3 -10.5°
Sets 05:40:35 0° 11° (NNE) 3,682 6.9 -10.1°
